Tracking 19242 objects as of 15-Aug-2018
HD Live streaming from Space Station
objects crossing your sky now

WESTFORD NEEDLES

Track WESTFORD NEEDLES now!
10-day predictions
WESTFORD NEEDLES is classified as:


NORAD ID: 18615
Int'l Code: 1963-014DK
Perigee: 2,438.3 km
Apogee: 4,758.4 km
Inclination: 86.6 °
Period: 165.1 minutes
Semi major axis: 9969 km
RCS: 0.075 m2 (small)
Launch date: May 9, 1963
Source: United States (US)
Launch site: AIR FORCE WESTERN TEST RANGE (AFWTR)
aabbcc
Your satellite tracking list
Your tracking list is empty




NASA's NSSDC Master Catalog

Two Line Element Set (TLE):
1 18615U 63014DK  18225.07185291 +.00000190 +00000-0 +41478-1 0  9991
2 18615 086.5539 087.1560 1163646 203.1844 327.9654 08.72174916794848
Source of the keplerian elements: AFSPC